Location: ???? ?????????
(44.3677°N, 135.2344°E)
Time: 07:26:46
(UTC+00:00)

Meteor 1-19 Rocket - Pass Details

Date: 19 May 2025
Orbit: 805 x 927 km, 81.2° (Epoch: 23 June)

Event Time Altitude Azimuth Distance (km) Brightness Sun altitude
Exits shadow 13:54:06 43° 212° (SSW) 1,271 4.8 -24.2°
Maximum altitude 13:56:06 71° 282° (WNW) 981 4.5 -24.3°
Drops below altitude 10° 14:02:08 10° 7° (N) 2,633 7.7 -24.6°
Sets 14:04:38 0° 9° (N) 3,572 8.6 -24.7°
